DLH2456 EDDM-ENGM

Flight info

Callsign DLH2456
Flight time 1h 52m
Altitude 38000
Route INPUD3Q INPUD Y102 UPALA M726 LASGA DCT EMBOX DCT BUMIL DCT GIMRU DCT SABAK L997 LUNIP
Aircraft A320/M-SDE2E3FGIJ1LORWXYZ/HB1

Departure

Time 2026-05-06 12:25
Airport Munich Airport (EDDM)

Arrival

Time 2026-05-06 14:18
Airport Oslo-Gardermoen International Airport (ENGM)
Time Latitude Longitude Altitude Speed Heading
2026-05-06 11:43 48.35161 11.79363 1486 ft 0 kts 263°
2026-05-06 12:13 48.35162 11.79370 1480 ft 3 kts 263°
2026-05-06 12:13 48.35164 11.79400 1474 ft 3 kts 263°
2026-05-06 12:13 48.35166 11.79431 1479 ft 3 kts 263°
2026-05-06 12:13 48.35168 11.79456 1476 ft 3 kts 270°
2026-05-06 12:14 48.35166 11.79485 1483 ft 3 kts 297°
2026-05-06 12:14 48.35155 11.79505 1485 ft 3 kts 346°
2026-05-06 12:14 48.35136 11.79509 1475 ft 3 kts 353°
2026-05-06 12:14 48.35131 11.79510 1479 ft 0 kts 353°
2026-05-06 12:17 48.35138 11.79509 1485 ft 6 kts 353°
2026-05-06 12:17 48.35211 11.79496 1485 ft 12 kts 353°
2026-05-06 12:17 48.35269 11.79486 1485 ft 13 kts 353°
2026-05-06 12:17 48.35369 11.79469 1485 ft 16 kts 353°
2026-05-06 12:18 48.35484 11.79449 1485 ft 18 kts 354°
2026-05-06 12:18 48.35613 11.79426 1475 ft 20 kts 353°
2026-05-06 12:18 48.35757 11.79402 1485 ft 22 kts 353°
2026-05-06 12:18 48.35873 11.79382 1485 ft 15 kts 353°
2026-05-06 12:19 48.35964 11.79336 1485 ft 14 kts 350°
2026-05-06 12:19 48.36026 11.79328 1480 ft 0 kts 354°
2026-05-06 12:19 48.36030 11.79327 1485 ft 4 kts 354°
2026-05-06 12:20 48.36090 11.79288 1471 ft 12 kts 293°
2026-05-06 12:20 48.36079 11.79154 1478 ft 14 kts 261°
2026-05-06 12:20 48.36068 11.79010 1483 ft 14 kts 267°
2026-05-06 12:20 48.36057 11.78852 1481 ft 16 kts 263°
2026-05-06 12:21 48.36045 11.78671 1485 ft 19 kts 263°
2026-05-06 12:21 48.36028 11.78467 1485 ft 21 kts 264°
2026-05-06 12:21 48.36010 11.78240 1485 ft 23 kts 263°
2026-05-06 12:21 48.35992 11.77992 1481 ft 25 kts 263°
2026-05-06 12:22 48.35973 11.77755 1485 ft 18 kts 263°
2026-05-06 12:22 48.36039 11.77660 1479 ft 16 kts 357°
2026-05-06 12:22 48.36148 11.77700 1485 ft 18 kts 43°
2026-05-06 12:22 48.36222 11.77853 1473 ft 19 kts 52°
2026-05-06 12:23 48.36266 11.77943 1475 ft 0 kts 54°
2026-05-06 12:23 48.36269 11.77951 1473 ft 5 kts 54°
2026-05-06 12:24 48.36318 11.78051 1484 ft 18 kts 53°
2026-05-06 12:24 48.36387 11.78223 1473 ft 20 kts 68°
2026-05-06 12:24 48.36396 11.78314 1482 ft 0 kts 83°
2026-05-06 12:24 48.36397 11.78322 1485 ft 6 kts 83°
2026-05-06 12:25 48.36434 11.78767 1483 ft 81 kts 83°
2026-05-06 12:25 48.36524 11.79921 1472 ft 141 kts 83°
2026-05-06 12:25 48.36652 11.81621 1704 ft 171 kts 84°
2026-05-06 12:25 48.36774 11.83414 2308 ft 180 kts 83°
2026-05-06 12:26 48.36952 11.85329 2884 ft 192 kts 75°
2026-05-06 12:26 48.37733 11.87029 3197 ft 213 kts 32°
2026-05-06 12:26 48.39220 11.87579 3570 ft 237 kts 354°
2026-05-06 12:26 48.40925 11.87056 3945 ft 262 kts 343°
2026-05-06 12:27 48.42466 11.85568 4003 ft 269 kts 314°
2026-05-06 12:27 48.43674 11.83340 4471 ft 278 kts 310°
2026-05-06 12:27 48.44900 11.81113 5563 ft 277 kts 311°
2026-05-06 12:27 48.46153 11.78890 6507 ft 280 kts 311°
2026-05-06 12:28 48.47427 11.76649 7398 ft 285 kts 311°
2026-05-06 12:28 48.48735 11.74357 8272 ft 290 kts 311°
2026-05-06 12:28 48.50059 11.72036 9119 ft 295 kts 310°
2026-05-06 12:28 48.51585 11.69953 9917 ft 300 kts 329°
2026-05-06 12:29 48.53508 11.68495 10347 ft 321 kts 334°
2026-05-06 12:29 48.55608 11.67053 10795 ft 338 kts 334°
2026-05-06 12:29 48.57775 11.65614 11550 ft 343 kts 334°
2026-05-06 12:29 48.59982 11.64160 12323 ft 348 kts 333°
2026-05-06 12:30 48.62209 11.62685 13067 ft 352 kts 332°
2026-05-06 12:30 48.64464 11.61179 13780 ft 356 kts 332°
2026-05-06 12:30 48.66742 11.59650 14474 ft 360 kts 332°
2026-05-06 12:30 48.69050 11.58093 15123 ft 365 kts 332°
2026-05-06 12:31 48.71382 11.56508 15778 ft 369 kts 332°
2026-05-06 12:31 48.73736 11.54908 16407 ft 373 kts 331°
2026-05-06 12:31 48.76116 11.53285 17020 ft 378 kts 331°
2026-05-06 12:31 48.78531 11.51635 17622 ft 382 kts 331°
2026-05-06 12:32 48.80965 11.49974 18214 ft 386 kts 331°
2026-05-06 12:32 48.83431 11.48291 18803 ft 390 kts 331°
2026-05-06 12:32 48.85911 11.46600 19384 ft 393 kts 331°
2026-05-06 12:32 48.88422 11.44887 19960 ft 397 kts 330°
2026-05-06 12:33 48.90949 11.43156 20522 ft 400 kts 330°
2026-05-06 12:33 48.93498 11.41412 21069 ft 403 kts 330°
2026-05-06 12:33 48.96062 11.39656 21586 ft 406 kts 330°
2026-05-06 12:33 48.98653 11.37881 22080 ft 409 kts 330°
2026-05-06 12:34 49.01258 11.36089 22575 ft 412 kts 330°
2026-05-06 12:34 49.03876 11.34286 23078 ft 415 kts 330°
2026-05-06 12:34 49.06518 11.32464 23552 ft 418 kts 330°
2026-05-06 12:34 49.09138 11.30659 24001 ft 420 kts 330°
2026-05-06 12:35 49.11813 11.28814 24451 ft 423 kts 330°
2026-05-06 12:35 49.14503 11.26951 24877 ft 426 kts 330°
2026-05-06 12:35 49.17213 11.25073 25294 ft 429 kts 330°
2026-05-06 12:35 49.20008 11.23409 25687 ft 437 kts 338°
2026-05-06 12:36 49.23011 11.22419 26085 ft 446 kts 348°
2026-05-06 12:36 49.26131 11.22172 26461 ft 453 kts 356°
2026-05-06 12:36 49.29292 11.22203 26844 ft 456 kts 356°
2026-05-06 12:36 49.32470 11.22230 27213 ft 458 kts 356°
2026-05-06 12:37 49.35665 11.22257 27571 ft 461 kts 356°
2026-05-06 12:37 49.38881 11.22284 27926 ft 463 kts 356°
2026-05-06 12:37 49.42112 11.22310 28256 ft 466 kts 356°
2026-05-06 12:37 49.45364 11.22335 28597 ft 469 kts 356°
2026-05-06 12:38 49.48631 11.22362 28926 ft 471 kts 356°
2026-05-06 12:38 49.51919 11.22389 29262 ft 473 kts 355°
2026-05-06 12:38 49.55220 11.22414 29566 ft 476 kts 355°
2026-05-06 12:38 49.58542 11.22429 29892 ft 478 kts 355°
2026-05-06 12:39 49.61876 11.22435 30193 ft 480 kts 355°
2026-05-06 12:39 49.65228 11.22440 30496 ft 483 kts 355°
2026-05-06 12:39 49.68591 11.22443 30786 ft 485 kts 355°
2026-05-06 12:39 49.71971 11.22447 31064 ft 486 kts 355°
2026-05-06 12:40 49.75361 11.22455 31344 ft 488 kts 355°
2026-05-06 12:40 49.78749 11.22468 31746 ft 487 kts 355°
2026-05-06 12:40 49.82137 11.22484 32129 ft 485 kts 355°
2026-05-06 12:40 49.85508 11.22503 32496 ft 485 kts 355°
2026-05-06 12:41 49.88877 11.22524 32846 ft 484 kts 355°
2026-05-06 12:41 49.92244 11.22546 33214 ft 483 kts 355°
2026-05-06 12:41 49.95604 11.22566 33571 ft 483 kts 354°
2026-05-06 12:41 49.98958 11.22585 33916 ft 482 kts 354°
2026-05-06 12:42 50.02308 11.22606 34258 ft 481 kts 355°
2026-05-06 12:42 50.05648 11.22626 34652 ft 478 kts 355°
2026-05-06 12:42 50.08969 11.22647 35014 ft 477 kts 355°
2026-05-06 12:42 50.12280 11.22668 35328 ft 475 kts 355°
2026-05-06 12:43 50.15586 11.22690 35600 ft 475 kts 355°
2026-05-06 12:43 50.18892 11.22709 35876 ft 474 kts 355°
2026-05-06 12:43 50.22191 11.22728 36161 ft 474 kts 356°
2026-05-06 12:43 50.25483 11.22751 36425 ft 473 kts 356°
2026-05-06 12:44 50.28728 11.22772 36663 ft 473 kts 356°
2026-05-06 12:44 50.32010 11.22791 36907 ft 472 kts 356°
2026-05-06 12:44 50.35291 11.22809 37175 ft 470 kts 356°
2026-05-06 12:44 50.38559 11.22874 37444 ft 470 kts 358°
2026-05-06 12:45 50.41823 11.23045 37682 ft 469 kts 359°
2026-05-06 12:45 50.45086 11.23291 37780 ft 468 kts 359°
2026-05-06 12:46 50.54798 11.24118 37794 ft 464 kts 359°
2026-05-06 12:46 50.61237 11.24584 37795 ft 462 kts 359°
2026-05-06 12:47 50.67650 11.25012 37795 ft 462 kts 359°
2026-05-06 12:47 50.74075 11.25457 37795 ft 462 kts 359°
2026-05-06 12:48 50.80494 11.25908 37793 ft 462 kts 359°
2026-05-06 12:48 50.86911 11.26364 37792 ft 461 kts 359°
2026-05-06 12:49 50.93310 11.26810 37791 ft 461 kts 359°
2026-05-06 12:49 50.99732 11.27261 37791 ft 461 kts 359°
2026-05-06 12:50 51.06130 11.27718 37789 ft 460 kts 359°
2026-05-06 12:50 51.12529 11.28174 37791 ft 460 kts 359°
2026-05-06 12:51 51.18924 11.28629 37792 ft 460 kts 359°
2026-05-06 12:51 51.25314 11.29089 37794 ft 460 kts 359°
2026-05-06 12:52 51.31708 11.29555 37797 ft 460 kts 359°
2026-05-06 12:52 51.38097 11.30019 37799 ft 460 kts 359°
2026-05-06 12:53 51.44441 11.30473 37802 ft 460 kts 359°
2026-05-06 12:53 51.50875 11.30856 37802 ft 459 kts 358°
2026-05-06 12:54 51.57254 11.30795 37810 ft 458 kts 355°
2026-05-06 12:54 51.63619 11.30576 37811 ft 457 kts 355°
2026-05-06 12:55 51.69942 11.30425 37811 ft 458 kts 356°
2026-05-06 12:55 51.76308 11.30356 37812 ft 458 kts 356°
2026-05-06 12:56 51.82680 11.30307 37817 ft 458 kts 356°
2026-05-06 12:56 51.89053 11.30231 37820 ft 458 kts 356°
2026-05-06 12:57 51.95417 11.30137 37823 ft 458 kts 356°
2026-05-06 12:57 52.01797 11.30057 37825 ft 458 kts 356°
2026-05-06 12:58 52.08162 11.29987 37832 ft 457 kts 356°
2026-05-06 12:58 52.14522 11.29904 37829 ft 457 kts 356°
2026-05-06 12:59 52.20884 11.29807 37829 ft 457 kts 356°
2026-05-06 12:59 52.27236 11.29725 37827 ft 456 kts 356°
2026-05-06 13:00 52.33592 11.29654 37827 ft 456 kts 356°
2026-05-06 13:00 52.39937 11.29565 37824 ft 456 kts 356°
2026-05-06 13:01 52.46277 11.29486 37824 ft 456 kts 356°
2026-05-06 13:01 52.52622 11.29396 37827 ft 456 kts 356°
2026-05-06 13:02 52.58895 11.29319 37826 ft 456 kts 356°
2026-05-06 13:02 52.65269 11.29237 37832 ft 456 kts 356°
2026-05-06 13:03 52.71615 11.29142 37835 ft 456 kts 357°
2026-05-06 13:03 52.77957 11.29054 37830 ft 456 kts 356°
2026-05-06 13:04 52.84304 11.28969 37829 ft 456 kts 357°
2026-05-06 13:04 52.90639 11.28895 37835 ft 456 kts 357°
2026-05-06 13:05 52.96618 11.28825 37843 ft 456 kts 357°
2026-05-06 13:05 53.01345 11.28761 37848 ft 457 kts 357°
2026-05-06 13:06 53.07502 11.28686 37855 ft 456 kts 357°
2026-05-06 13:06 53.13895 11.28602 37861 ft 457 kts 357°
2026-05-06 13:07 53.20246 11.28689 37866 ft 457 kts 358°
2026-05-06 13:07 53.26597 11.28866 37865 ft 456 kts 358°
2026-05-06 13:08 53.32898 11.29003 37878 ft 456 kts 358°
2026-05-06 13:08 53.39259 11.29123 37880 ft 456 kts 358°
2026-05-06 13:09 53.45608 11.29229 37882 ft 456 kts 358°
2026-05-06 13:09 53.51957 11.29341 37883 ft 456 kts 358°
2026-05-06 13:10 53.58307 11.29463 37889 ft 456 kts 358°
2026-05-06 13:10 53.64661 11.29582 37888 ft 457 kts 358°
2026-05-06 13:11 53.71013 11.29704 37894 ft 457 kts 358°
2026-05-06 13:11 53.77367 11.29819 37896 ft 457 kts 358°
2026-05-06 13:12 53.83721 11.29954 37901 ft 457 kts 358°
2026-05-06 13:12 53.90076 11.30083 37903 ft 456 kts 358°
2026-05-06 13:13 53.96425 11.30204 37902 ft 457 kts 358°
2026-05-06 13:13 54.02781 11.30332 37903 ft 457 kts 358°
2026-05-06 13:14 54.09135 11.30455 37904 ft 457 kts 358°
2026-05-06 13:14 54.15499 11.30560 37910 ft 457 kts 358°
2026-05-06 13:15 54.21862 11.30676 37911 ft 457 kts 358°
2026-05-06 13:15 54.28221 11.30803 37912 ft 457 kts 358°
2026-05-06 13:16 54.34574 11.30935 37913 ft 457 kts 358°
2026-05-06 13:16 54.40895 11.31059 37912 ft 457 kts 358°
2026-05-06 13:17 54.47258 11.31172 37913 ft 457 kts 358°
2026-05-06 13:17 54.53622 11.31301 37916 ft 457 kts 358°
2026-05-06 13:18 54.59989 11.31537 37919 ft 458 kts 360°
2026-05-06 13:18 54.66357 11.32105 37919 ft 458 kts
2026-05-06 13:19 54.72728 11.32756 37920 ft 458 kts
2026-05-06 13:19 54.79096 11.33322 37921 ft 458 kts
2026-05-06 13:20 54.85472 11.33823 37923 ft 458 kts
2026-05-06 13:20 54.91846 11.34341 37929 ft 459 kts
2026-05-06 13:21 54.98220 11.34892 37934 ft 459 kts
2026-05-06 13:21 55.04601 11.35436 37941 ft 459 kts
2026-05-06 13:22 55.10985 11.35970 37939 ft 459 kts
2026-05-06 13:22 55.17368 11.36514 37948 ft 459 kts
2026-05-06 13:23 55.23754 11.37060 37944 ft 459 kts 360°
2026-05-06 13:23 55.30144 11.37606 37948 ft 460 kts
2026-05-06 13:24 55.36540 11.38157 37956 ft 460 kts
2026-05-06 13:24 55.42897 11.38709 37958 ft 461 kts
2026-05-06 13:25 55.49344 11.39272 37958 ft 461 kts 360°
2026-05-06 13:25 55.55713 11.39824 37953 ft 461 kts
2026-05-06 13:26 55.62126 11.40385 37962 ft 461 kts
2026-05-06 13:26 55.68538 11.40944 37960 ft 461 kts 360°
2026-05-06 13:27 55.74952 11.41503 37954 ft 462 kts 360°
2026-05-06 13:27 55.81371 11.42070 37950 ft 462 kts 360°
2026-05-06 13:28 55.87794 11.42637 37952 ft 463 kts 360°
2026-05-06 13:28 55.94225 11.43210 37958 ft 463 kts 360°
2026-05-06 13:29 56.00660 11.43782 37954 ft 463 kts 360°
2026-05-06 13:29 56.07089 11.44359 37964 ft 463 kts 359°
2026-05-06 13:30 56.13526 11.44927 37963 ft 463 kts 359°
2026-05-06 13:30 56.19959 11.45493 37963 ft 463 kts 359°
2026-05-06 13:31 56.26401 11.46074 37962 ft 463 kts 359°
2026-05-06 13:31 56.32839 11.46666 37951 ft 463 kts 359°
2026-05-06 13:32 56.39280 11.47250 37958 ft 463 kts 359°
2026-05-06 13:32 56.45717 11.47840 37965 ft 463 kts 359°
2026-05-06 13:33 56.52153 11.48433 37966 ft 463 kts 359°
2026-05-06 13:33 56.58591 11.49022 37958 ft 463 kts 359°
2026-05-06 13:34 56.65035 11.49612 37971 ft 464 kts 359°
2026-05-06 13:34 56.71477 11.50193 37962 ft 463 kts 359°
2026-05-06 13:35 56.77918 11.50793 37979 ft 463 kts 359°
2026-05-06 13:35 56.84362 11.51401 37963 ft 463 kts 359°
2026-05-06 13:36 56.90808 11.51996 37972 ft 463 kts 359°
2026-05-06 13:36 56.97252 11.52594 37975 ft 464 kts 359°
2026-05-06 13:37 57.03705 11.53204 37980 ft 464 kts 359°
2026-05-06 13:37 57.10159 11.53820 37979 ft 464 kts 358°
2026-05-06 13:38 57.16610 11.54434 37981 ft 464 kts 358°
2026-05-06 13:38 57.23068 11.55047 37979 ft 464 kts 358°
2026-05-06 13:39 57.29514 11.55657 37978 ft 464 kts 358°
2026-05-06 13:39 57.35969 11.56274 37979 ft 464 kts 358°
2026-05-06 13:40 57.42425 11.56888 37979 ft 465 kts 358°
2026-05-06 13:40 57.48840 11.57510 37981 ft 465 kts 358°
2026-05-06 13:41 57.55301 11.58130 37983 ft 465 kts 358°
2026-05-06 13:41 57.61760 11.58761 37984 ft 465 kts 358°
2026-05-06 13:42 57.68221 11.59385 37977 ft 465 kts 358°
2026-05-06 13:42 57.74682 11.60017 37977 ft 465 kts 358°
2026-05-06 13:43 57.81152 11.60653 37980 ft 466 kts 358°
2026-05-06 13:43 57.87624 11.61288 37984 ft 466 kts 358°
2026-05-06 13:44 57.94093 11.61931 37985 ft 465 kts 357°
2026-05-06 13:44 58.00559 11.62576 37986 ft 465 kts 357°
2026-05-06 13:45 58.07032 11.63213 37989 ft 466 kts 357°
2026-05-06 13:45 58.16737 11.64085 37982 ft 463 kts 353°
2026-05-06 13:46 58.23045 11.62657 37978 ft 455 kts 344°
2026-05-06 13:46 58.29294 11.60723 37963 ft 455 kts 344°
2026-05-06 13:47 58.35538 11.58776 37981 ft 455 kts 344°
2026-05-06 13:47 58.41780 11.56834 37970 ft 454 kts 344°
2026-05-06 13:48 58.48025 11.54901 37550 ft 458 kts 344°
2026-05-06 13:48 58.51186 11.53909 36812 ft 460 kts 344°
2026-05-06 13:48 58.54331 11.52928 36323 ft 457 kts 343°
2026-05-06 13:49 58.57460 11.51954 35768 ft 455 kts 343°
2026-05-06 13:49 58.60574 11.50982 35220 ft 453 kts 343°
2026-05-06 13:49 58.63677 11.50014 34676 ft 451 kts 342°
2026-05-06 13:49 58.66768 11.49049 34118 ft 449 kts 342°
2026-05-06 13:50 58.68809 11.48409 33746 ft 448 kts 342°
2026-05-06 13:50 58.71880 11.47442 33227 ft 446 kts 342°
2026-05-06 13:50 58.74930 11.46477 32692 ft 443 kts 342°
2026-05-06 13:50 58.77918 11.45528 32179 ft 441 kts 341°
2026-05-06 13:51 58.80934 11.44568 31656 ft 438 kts 341°
2026-05-06 13:51 58.83935 11.43609 31147 ft 436 kts 341°
2026-05-06 13:51 58.86920 11.42655 30643 ft 434 kts 341°
2026-05-06 13:51 58.89888 11.41701 30148 ft 431 kts 341°
2026-05-06 13:52 58.92838 11.40757 29675 ft 428 kts 340°
2026-05-06 13:52 58.95765 11.39823 29196 ft 424 kts 340°
2026-05-06 13:52 58.98667 11.38896 28729 ft 421 kts 340°
2026-05-06 13:52 59.01545 11.37975 28291 ft 417 kts 340°
2026-05-06 13:53 59.04395 11.37060 27832 ft 413 kts 340°
2026-05-06 13:53 59.07215 11.36150 27366 ft 409 kts 340°
2026-05-06 13:53 59.10004 11.35246 26911 ft 405 kts 340°
2026-05-06 13:53 59.12760 11.34271 26417 ft 400 kts 338°
2026-05-06 13:54 59.15475 11.33174 25952 ft 399 kts 341°
2026-05-06 13:54 59.18262 11.32690 25436 ft 408 kts 352°
2026-05-06 13:54 59.21093 11.33317 25154 ft 412 kts
2026-05-06 13:54 59.23845 11.34889 24763 ft 411 kts 10°
2026-05-06 13:55 59.26561 11.36591 24302 ft 409 kts 11°
2026-05-06 13:55 59.29252 11.38311 23890 ft 405 kts 11°
2026-05-06 13:55 59.31918 11.40028 23472 ft 401 kts 11°
2026-05-06 13:55 59.34556 11.41723 23068 ft 397 kts 11°
2026-05-06 13:56 59.37174 11.43396 22574 ft 396 kts 11°
2026-05-06 13:56 59.39794 11.45058 22026 ft 397 kts 11°
2026-05-06 13:56 59.42422 11.46725 21465 ft 394 kts 11°
2026-05-06 13:56 59.44988 11.48365 20913 ft 382 kts 11°
2026-05-06 13:57 59.47480 11.49952 20364 ft 372 kts 10°
2026-05-06 13:57 59.49908 11.51489 19816 ft 363 kts 10°
2026-05-06 13:57 59.52299 11.52997 19267 ft 356 kts 10°
2026-05-06 13:57 59.54642 11.54473 18709 ft 351 kts
2026-05-06 13:58 59.56919 11.55908 18173 ft 346 kts 10°
2026-05-06 13:58 59.59217 11.57356 17784 ft 345 kts 10°
2026-05-06 13:58 59.61498 11.58800 17431 ft 343 kts 10°
2026-05-06 13:58 59.63762 11.60238 17040 ft 342 kts 11°
2026-05-06 13:59 59.66009 11.61672 16709 ft 339 kts 11°
2026-05-06 13:59 59.68247 11.63103 16403 ft 335 kts 11°
2026-05-06 13:59 59.70470 11.64528 16018 ft 334 kts 12°
2026-05-06 13:59 59.72662 11.65938 15676 ft 329 kts 11°
2026-05-06 14:00 59.74835 11.67330 15152 ft 326 kts 12°
2026-05-06 14:00 59.76969 11.68695 14766 ft 319 kts 12°
2026-05-06 14:00 59.79071 11.70044 14414 ft 317 kts 12°
2026-05-06 14:00 59.81173 11.71392 14057 ft 317 kts 13°
2026-05-06 14:01 59.83270 11.72740 13698 ft 317 kts 13°
2026-05-06 14:01 59.85367 11.74090 13336 ft 317 kts 13°
2026-05-06 14:01 59.87466 11.75443 12986 ft 316 kts 14°
2026-05-06 14:01 59.89546 11.76789 12632 ft 315 kts 14°
2026-05-06 14:02 59.91613 11.78132 12336 ft 311 kts 14°
2026-05-06 14:02 59.93677 11.79475 11998 ft 309 kts 15°
2026-05-06 14:02 59.95722 11.80810 11636 ft 308 kts 15°
2026-05-06 14:02 59.97756 11.82141 11244 ft 309 kts 15°
2026-05-06 14:03 59.99782 11.83473 10968 ft 305 kts 16°
2026-05-06 14:03 60.01809 11.84794 10600 ft 304 kts 15°
2026-05-06 14:03 60.03819 11.86105 10199 ft 304 kts 16°
2026-05-06 14:03 60.05816 11.87420 9840 ft 302 kts 16°
2026-05-06 14:04 60.07800 11.88722 9478 ft 299 kts 17°
2026-05-06 14:04 60.09775 11.90013 9156 ft 297 kts 17°
2026-05-06 14:04 60.11749 11.91085 8927 ft 293 kts
2026-05-06 14:04 60.13758 11.91673 8930 ft 293 kts
2026-05-06 14:05 60.15778 11.92274 8932 ft 293 kts
2026-05-06 14:05 60.17796 11.92886 8935 ft 294 kts
2026-05-06 14:05 60.19818 11.93508 8932 ft 294 kts
2026-05-06 14:05 60.21838 11.94127 8930 ft 293 kts
2026-05-06 14:06 60.23790 11.94722 8919 ft 279 kts
2026-05-06 14:06 60.25657 11.95293 8922 ft 265 kts
2026-05-06 14:06 60.27412 11.96348 8923 ft 262 kts 20°
2026-05-06 14:06 60.29113 11.97669 8922 ft 262 kts 20°
2026-05-06 14:07 60.30821 11.98967 8896 ft 262 kts 16°
2026-05-06 14:07 60.32601 11.99370 8771 ft 257 kts 351°
2026-05-06 14:07 60.34271 11.98281 8644 ft 251 kts 326°
2026-05-06 14:07 60.35539 11.95969 8518 ft 245 kts 301°
2026-05-06 14:08 60.36229 11.92884 8394 ft 240 kts 281°
2026-05-06 14:08 60.36599 11.89592 8272 ft 241 kts 280°
2026-05-06 14:08 60.36972 11.86298 8142 ft 240 kts 281°
2026-05-06 14:08 60.37348 11.83007 8018 ft 241 kts 281°
2026-05-06 14:09 60.37724 11.79716 7896 ft 239 kts 280°
2026-05-06 14:09 60.38098 11.76449 7768 ft 238 kts 280°
2026-05-06 14:09 60.38469 11.73194 7640 ft 239 kts 280°
2026-05-06 14:09 60.38838 11.69922 7513 ft 238 kts 280°
2026-05-06 14:10 60.39207 11.66664 7386 ft 238 kts 281°
2026-05-06 14:10 60.39573 11.63413 7260 ft 236 kts 280°
2026-05-06 14:10 60.39935 11.60175 7130 ft 237 kts 280°
2026-05-06 14:10 60.40295 11.56929 7015 ft 236 kts 281°
2026-05-06 14:11 60.40658 11.53699 6882 ft 236 kts 281°
2026-05-06 14:11 60.41019 11.50455 6755 ft 236 kts 280°
2026-05-06 14:11 60.41373 11.47224 6630 ft 235 kts 280°
2026-05-06 14:11 60.41725 11.44011 6408 ft 232 kts 281°
2026-05-06 14:12 60.41990 11.40819 6102 ft 228 kts 270°
2026-05-06 14:12 60.41834 11.37697 5755 ft 227 kts 255°
2026-05-06 14:12 60.41439 11.34588 5375 ft 230 kts 254°
2026-05-06 14:12 60.41045 11.31441 4997 ft 232 kts 255°
2026-05-06 14:13 60.40651 11.28330 4857 ft 224 kts 252°
2026-05-06 14:13 60.39963 11.25566 4659 ft 218 kts 232°
2026-05-06 14:13 60.38865 11.23512 4444 ft 215 kts 212°
2026-05-06 14:13 60.37493 11.22353 4188 ft 214 kts 197°
2026-05-06 14:14 60.36059 11.21519 3913 ft 215 kts 197°
2026-05-06 14:14 60.34619 11.20678 3620 ft 215 kts 197°
2026-05-06 14:14 60.33185 11.19843 3348 ft 215 kts 197°
2026-05-06 14:14 60.31774 11.19019 3073 ft 206 kts 197°
2026-05-06 14:15 60.30425 11.18232 2786 ft 195 kts 197°
2026-05-06 14:15 60.29178 11.17506 2548 ft 177 kts 195°
2026-05-06 14:15 60.28041 11.16844 2317 ft 164 kts 195°
2026-05-06 14:15 60.26984 11.16229 2117 ft 151 kts 195°
2026-05-06 14:16 60.26011 11.15665 1910 ft 142 kts 196°
2026-05-06 14:16 60.25070 11.15118 1723 ft 140 kts 196°
2026-05-06 14:16 60.24135 11.14576 1540 ft 139 kts 196°
2026-05-06 14:16 60.23205 11.14037 1356 ft 139 kts 196°
2026-05-06 14:17 60.22280 11.13501 1172 ft 138 kts 196°
2026-05-06 14:17 60.21359 11.12967 989 ft 138 kts 196°
2026-05-06 14:17 60.20442 11.12430 812 ft 137 kts 196°
2026-05-06 14:17 60.19544 11.11894 700 ft 128 kts 194°
2026-05-06 14:18 60.18821 11.11494 690 ft 83 kts 196°
2026-05-06 14:18 60.18429 11.11266 687 ft 34 kts 196°
2026-05-06 14:18 60.18204 11.11135 692 ft 34 kts 198°
2026-05-06 14:18 60.18041 11.10900 691 ft 20 kts 250°
2026-05-06 14:19 60.18068 11.10693 687 ft 16 kts 329°
2026-05-06 14:19 60.18179 11.10734 684 ft 17 kts 18°
2026-05-06 14:19 60.18299 11.10805 685 ft 19 kts 15°
2026-05-06 14:19 60.18431 11.10877 689 ft 21 kts 15°
2026-05-06 14:20 60.18580 11.10965 687 ft 24 kts 16°
2026-05-06 14:20 60.18745 11.11061 688 ft 25 kts 15°
2026-05-06 14:20 60.18916 11.11158 690 ft 26 kts 16°
2026-05-06 14:20 60.19033 11.11226 692 ft 0 kts 16°
2026-05-06 14:21 60.19035 11.11227 689 ft 3 kts 16°
2026-05-06 14:21 60.19123 11.11278 688 ft 18 kts 17°
2026-05-06 14:21 60.19261 11.11358 687 ft 23 kts 16°
2026-05-06 14:21 60.19334 11.11403 684 ft 0 kts 17°
2026-05-06 14:22 60.19350 11.11412 690 ft 12 kts 14°
2026-05-06 14:22 60.19458 11.11446 688 ft 11 kts 324°
2026-05-06 14:22 60.19481 11.11313 691 ft 9 kts 285°
2026-05-06 14:22 60.19499 11.11180 691 ft 13 kts 285°
2026-05-06 14:23 60.19532 11.10952 688 ft 20 kts 286°
2026-05-06 14:23 60.19571 11.10689 691 ft 18 kts 286°
2026-05-06 14:23 60.19604 11.10471 691 ft 15 kts 288°
2026-05-06 14:23 60.19625 11.10321 691 ft 9 kts 286°
2026-05-06 14:24 60.19636 11.10245 690 ft 2 kts 286°
2026-05-06 14:24 60.19639 11.10220 685 ft 2 kts 285°
2026-05-06 14:24 60.19641 11.10207 691 ft 0 kts 285°